Home   Weather   Stavern   Past weeks

Flag for Norway Past Weather in Stavern, Norway — Yesterday and Last 2 Weeks

Now
46 °F

Sunny.


Feels Like: 46 °F
Forecast: 39 / 51 °F
Wind: No wind

Location: Torp

Current Time: Apr 30, 2017 at 11:05:03 am

Latest Report: Apr 30, 2017 at 10:20 am


Visibility: 10 mi

Pressure: 30.18 "Hg

Humidity: 62%

Dew Point: 34 °F

Location of StavernLocation

Past Weather in Stavern — Graph

°F

Stavern Temperature Yesterday

Maximum temperature yesterday: 50 °F (at 3:50 pm)
Minimum temperature yesterday: 36 °F (at 5:20 am)
Average temperature yesterday: 43 °F

High & Low Weather Summary for the Past Weeks

 TemperatureHumidityPressure
High55 °F (Apr 21, 11:50 am)100% (Apr 16, 4:20 am)30.54 "Hg (Apr 16, 4:20 am)
Low27 °F (Apr 16, 2:50 am)22% (Apr 22, 1:20 pm)29.27 "Hg (Apr 24, 10:50 am)
Average39 °F69%29.92 "Hg
* Reported Apr 15 10:20 am — Apr 30 9:20 am, Stavern, Weather by CustomWeather, © 2017

Note: Actual official high and low records may vary slightly from our data, if they occured in-between our weather recording intervals... More about our weather records

Advertising

Stavern Weather History for the Previous 24 Hours

Scroll right to see more
 ConditionsComfort  
Time TempWeatherWind HumidityBarometerVisibility
9:20 am
Sun, Apr 30
41 °FSunny.No wind70%30.18 "Hg10 mi
8:50 am41 °FSunny.2 mph66%30.18 "Hg10 mi
8:20 am39 °FSunny.3 mph70%30.18 "Hg10 mi
7:50 am37 °FSunny.5 mph81%30.18 "Hg10 mi
7:20 am36 °FSunny.5 mph87%30.18 "Hg10 mi
6:50 am34 °FSunny.5 mph87%30.18 "Hg10 mi
6:20 am32 °FSunny.3 mph93%30.18 "Hg10 mi
5:50 am32 °FSunny.5 mph87%30.18 "Hg10 mi
5:20 am32 °FOvercast.5 mph87%30.18 "HgN/A
4:50 am34 °FChilly.5 mph81%30.18 "HgN/A
4:20 am32 °FChilly.5 mph87%30.18 "HgN/A
3:50 am32 °FChilly.6 mph87%30.18 "HgN/A
3:20 am34 °FChilly.6 mph81%30.18 "HgN/A
2:50 am34 °FChilly.6 mph81%30.18 "HgN/A
2:20 am34 °FChilly.5 mph81%30.18 "HgN/A
1:50 am37 °FChilly.6 mph65%30.15 "HgN/A
1:20 am37 °FChilly.6 mph65%30.15 "HgN/A
12:50 am37 °FChilly.5 mph70%30.18 "HgN/A
12:20 am37 °FChilly.3 mph70%30.18 "HgN/A
11:50 pm
Sat, Apr 29
39 °FChilly.5 mph65%30.18 "HgN/A
11:20 pm39 °FChilly.5 mph61%30.15 "HgN/A
10:50 pm41 °FClear.3 mph61%30.15 "Hg10 mi
10:20 pm41 °FClear.3 mph61%30.15 "Hg10 mi
9:20 pm45 °FClear.5 mph49%30.15 "Hg10 mi
8:50 pm46 °FSunny.3 mph46%30.15 "Hg10 mi
8:20 pm46 °FSunny.6 mph46%30.15 "Hg10 mi
7:50 pm48 °FSunny.8 mph46%30.15 "Hg10 mi
7:20 pm48 °FPassing clouds.7 mph43%30.15 "HgN/A
6:50 pm50 °FPassing clouds.7 mph40%30.15 "HgN/A
6:20 pm50 °FPassing clouds.8 mph40%30.15 "HgN/A
5:50 pm50 °FClear.8 mph40%30.15 "HgN/A
5:20 pm50 °FPassing clouds.9 mph43%30.15 "HgN/A
4:50 pm50 °FPassing clouds.8 mph37%30.15 "HgN/A
4:20 pm50 °FPassing clouds.8 mph40%30.15 "HgN/A
3:50 pm50 °FPassing clouds.8 mph43%30.15 "HgN/A
3:20 pm48 °FPassing clouds.9 mph50%30.15 "HgN/A
2:20 pm48 °FPassing clouds.10 mph50%30.15 "HgN/A
1:50 pm48 °FPassing clouds.12 mph46%30.15 "HgN/A
1:20 pm48 °FPassing clouds.12 mph50%30.15 "HgN/A
12:50 pm46 °FPassing clouds.12 mph57%30.18 "HgN/A
12:20 pm45 °FPassing clouds.14 mph57%30.18 "HgN/A
11:50 am45 °FPassing clouds.14 mph57%30.18 "HgN/A
11:20 am43 °FPassing clouds.14 mph66%30.18 "HgN/A
Weather by CustomWeather, © 2017

See weather overviewHow to use our weather pages